User: anonymous
Location: Caltech
(34.1382°N, 118.1253°W)
Time: 11:50:51
(UTC-07:00)
Language:

Gurwin Techsat 1B - Orbit

View from above orbital plane
View from above orbital plane
View from above satellite
View from above satellite

Ground track
Ground track

The orbit data is extracted from the following two-line orbital elements,

1 25397U 98043D   14245.42176613  .00000010  00000-0  22729-4 0  4291
2 25397 098.4767 200.5590 0002480 093.7278 018.2592 14.23457802838855
Epoch (UTC): 02 September 2014 10:07:20
Eccentricity: 0.0002480
inclination: 98.4767°
perigee height: 812 km
apogee height: 815 km
right ascension of ascending node: 200.5590°
argument of perigee: 93.7278°
revolutions per day: 14.23457802
mean anomaly at epoch: 18.2592°
orbit number at epoch: 83885

The dashed part of the orbit path shows where the satellite is in the earth's shadow,  

DLR